When you browse on this site, cookies collect data to enhance your experience and personalize the content and advertising you see.
Visit our Privacy Policy to learn more. By continuing to use the site, you agree to this use of cookies and data.
  • Em Portugal
  • Lista de países
  • Para 7 dias
  • Temperatura da água
  • Mapas de satélite
  • Mapa do tempo
  • Widgets de tempo
  • user-avatar
    Iniciar Sessão

    Previsão horária em Taba

    Hoje, 22 Maio, Quarta-feira

    Tempo Temperatura Precipitação Vento Pressão Humidade
    00:00 +28°C° 0 mm 2 m/s 695 mmHg 26%
    01:00 +27°C° 0 mm 2 m/s 695 mmHg 27%
    02:00 +26°C° 0 mm 2 m/s 695 mmHg 29%
    03:00 +26°C° 0 mm 2 m/s 695 mmHg 29%
    04:00 +25°C° 0 mm 2 m/s 695 mmHg 28%
    05:00 +25°C° 0 mm 2 m/s 695 mmHg 28%
    06:00 +27°C° 0 mm 2 m/s 695 mmHg 24%
    07:00 +29°C° 0 mm 2 m/s 695 mmHg 19%
    08:00 +31°C° 0 mm 2 m/s 696 mmHg 15%
    09:00 +32°C° 0 mm 2 m/s 696 mmHg 13%
    10:00 +34°C° 0 mm 2 m/s 696 mmHg 12%
    11:00 +36°C° 0 mm 2 m/s 696 mmHg 11%
    12:00 +37°C° 0 mm 2 m/s 696 mmHg 10%
    13:00 +38°C° 0 mm 2 m/s 696 mmHg 9%
    14:00 +38°C° 0 mm 2 m/s 695 mmHg 8%
    15:00 +38°C° 0 mm 3 m/s 695 mmHg 8%
    16:00 +38°C° 0 mm 3 m/s 695 mmHg 8%
    17:00 +38°C° 0 mm 4 m/s 695 mmHg 8%
    18:00 +37°C° 0 mm 4 m/s 695 mmHg 9%
    19:00 +35°C° 0 mm 4 m/s 695 mmHg 10%
    20:00 +34°C° 0 mm 4 m/s 695 mmHg 10%
    21:00 +33°C° 0 mm 3 m/s 695 mmHg 11%
    22:00 +31°C° 0 mm 3 m/s 695 mmHg 11%
    23:00 +30°C° 0 mm 3 m/s 695 mmHg 12%

    Amanhã, 23 Maio, Quinta-feira

    Tempo Temperatura Precipitação Vento Pressão Humidade
    00:00 +29°C° 0 mm 2 m/s 695 mmHg 12%
    01:00 +29°C° 0 mm 2 m/s 694 mmHg 13%
    02:00 +28°C° 0 mm 2 m/s 694 mmHg 14%
    03:00 +27°C° 0 mm 1 m/s 694 mmHg 14%
    04:00 +27°C° 0 mm 1 m/s 694 mmHg 15%
    05:00 +26°C° 0 mm 1 m/s 694 mmHg 16%
    06:00 +29°C° 0 mm 2 m/s 694 mmHg 14%
    07:00 +31°C° 0 mm 2 m/s 695 mmHg 12%
    08:00 +34°C° 0 mm 3 m/s 695 mmHg 11%
    09:00 +35°C° 0 mm 3 m/s 695 mmHg 10%
    10:00 +37°C° 0 mm 4 m/s 695 mmHg 9%
    11:00 +38°C° 0 mm 4 m/s 695 mmHg 9%
    12:00 +38°C° 0 mm 3 m/s 695 mmHg 8%
    13:00 +39°C° 0 mm 3 m/s 694 mmHg 8%
    14:00 +40°C° 0 mm 3 m/s 694 mmHg 7%
    15:00 +39°C° 0 mm 3 m/s 693 mmHg 8%
    16:00 +39°C° 0 mm 2 m/s 693 mmHg 8%
    17:00 +39°C° 0 mm 2 m/s 692 mmHg 8%
    18:00 +37°C° 0 mm 2 m/s 692 mmHg 9%
    19:00 +35°C° 0 mm 1 m/s 693 mmHg 10%
    20:00 +33°C° 0 mm 1 m/s 693 mmHg 11%
    21:00 +32°C° 0 mm 1 m/s 693 mmHg 12%
    22:00 +30°C° 0 mm 0 m/s 693 mmHg 12%
    23:00 +29°C° 0 mm 0 m/s 693 mmHg 13%

    Depois de amanhã, 24 Maio, Sexta-feira

    Tempo Temperatura Precipitação Vento Pressão Humidade
    00:00 +28°C° 0 mm 0 m/s 692 mmHg 13%
    01:00 +28°C° 0 mm 0 m/s 692 mmHg 14%
    02:00 +27°C° 0 mm 0 m/s 691 mmHg 14%
    03:00 +27°C° 0 mm 0 m/s 691 mmHg 15%
    04:00 +26°C° 0 mm 0 m/s 691 mmHg 15%
    05:00 +28°C° 0 mm 1 m/s 691 mmHg 15%
    06:00 +30°C° 0 mm 1 m/s 692 mmHg 13%
    07:00 +33°C° 0 mm 1 m/s 693 mmHg 11%
    08:00 +35°C° 0 mm 1 m/s 693 mmHg 10%
    09:00 +37°C° 0 mm 2 m/s 693 mmHg 9%
    10:00 +39°C° 0 mm 3 m/s 693 mmHg 8%
    11:00 +41°C° 0 mm 4 m/s 693 mmHg 8%
    12:00 +41°C° 0 mm 5 m/s 693 mmHg 7%
    13:00 +42°C° 0 mm 6 m/s 693 mmHg 7%
    14:00 +43°C° 0 mm 7 m/s 692 mmHg 7%
    15:00 +41°C° 0.1 mm 6 m/s 692 mmHg 8%
    16:00 +41°C° 0.1 mm 5 m/s 692 mmHg 8%
    17:00 +40°C° 0.1 mm 4 m/s 691 mmHg 9%
    18:00 +37°C° 0.1 mm 3 m/s 692 mmHg 10%
    19:00 +36°C° 0.1 mm 2 m/s 692 mmHg 11%
    20:00 +33°C° 0.1 mm 1 m/s 692 mmHg 13%
    21:00 +33°C° 0 mm 1 m/s 692 mmHg 13%
    22:00 +32°C° 0 mm 1 m/s 692 mmHg 14%
    23:00 +31°C° 0 mm 1 m/s 692 mmHg 14%

    25 Maio, Sábado

    Tempo Temperatura Precipitação Vento Pressão Humidade
    00:00 +31°C° 0 mm 1 m/s 692 mmHg 15%
    01:00 +30°C° 0 mm 1 m/s 691 mmHg 16%
    02:00 +27°C° 0 mm 0 m/s 691 mmHg 16%
    03:00 +27°C° 0 mm 0 m/s 691 mmHg 16%
    04:00 +27°C° 0 mm 0 m/s 692 mmHg 16%
    05:00 +29°C° 0 mm 1 m/s 692 mmHg 16%
    06:00 +31°C° 0 mm 1 m/s 693 mmHg 15%
    07:00 +32°C° 0 mm 2 m/s 693 mmHg 14%
    08:00 +35°C° 0 mm 2 m/s 694 mmHg 12%
    09:00 +36°C° 0 mm 2 m/s 694 mmHg 12%
    10:00 +37°C° 0 mm 2 m/s 694 mmHg 12%
    11:00 +38°C° 0 mm 2 m/s 694 mmHg 11%
    12:00 +38°C° 0 mm 2 m/s 694 mmHg 11%
    13:00 +39°C° 0 mm 2 m/s 693 mmHg 11%
    14:00 +39°C° 0 mm 2 m/s 693 mmHg 10%
    15:00 +39°C° 0 mm 2 m/s 693 mmHg 11%
    16:00 +39°C° 0 mm 2 m/s 693 mmHg 12%
    17:00 +38°C° 0 mm 2 m/s 693 mmHg 13%
    18:00 +37°C° 0 mm 2 m/s 693 mmHg 16%
    19:00 +35°C° 0 mm 2 m/s 693 mmHg 20%
    20:00 +33°C° 0 mm 1 m/s 693 mmHg 23%
    21:00 +31°C° 0 mm 2 m/s 693 mmHg 28%
    22:00 +30°C° 0 mm 2 m/s 693 mmHg 34%
    23:00 +29°C° 0 mm 3 m/s 693 mmHg 39%

    26 Maio, Domingo

    Tempo Temperatura Precipitação Vento Pressão Humidade
    00:00 +28°C° 0 mm 3 m/s 693 mmHg 42%
    01:00 +27°C° 0 mm 2 m/s 692 mmHg 44%
    02:00 +27°C° 0 mm 2 m/s 692 mmHg 46%
    03:00 +26°C° 0 mm 2 m/s 692 mmHg 46%
    04:00 +26°C° 0 mm 2 m/s 692 mmHg 47%
    05:00 +26°C° 0 mm 2 m/s 692 mmHg 47%
    06:00 +27°C° 0 mm 2 m/s 692 mmHg 43%
    07:00 +28°C° 0 mm 2 m/s 693 mmHg 39%
    08:00 +29°C° 0 mm 2 m/s 693 mmHg 35%
    09:00 +31°C° 0 mm 2 m/s 693 mmHg 29%
    10:00 +34°C° 0 mm 2 m/s 693 mmHg 24%
    11:00 +36°C° 0 mm 2 m/s 693 mmHg 19%
    12:00 +37°C° 0.1 mm 2 m/s 692 mmHg 17%
    13:00 +38°C° 0.1 mm 2 m/s 692 mmHg 16%
    14:00 +38°C° 0.1 mm 2 m/s 692 mmHg 14%
    15:00 +38°C° 0.2 mm 3 m/s 692 mmHg 16%
    16:00 +37°C° 0.2 mm 4 m/s 692 mmHg 17%
    17:00 +36°C° 0.2 mm 4 m/s 692 mmHg 18%
    18:00 +35°C° 0 mm 4 m/s 692 mmHg 21%
    19:00 +34°C° 0 mm 3 m/s 692 mmHg 24%
    20:00 +31°C° 0 mm 3 m/s 692 mmHg 27%
    21:00 +30°C° 0 mm 3 m/s 692 mmHg 29%
    22:00 +30°C° 0 mm 3 m/s 692 mmHg 30%
    23:00 +29°C° 0 mm 3 m/s 691 mmHg 31%

    27 Maio, Segunda-feira

    Tempo Temperatura Precipitação Vento Pressão Humidade
    00:00 +28°C° 0 mm 3 m/s 691 mmHg 32%
    01:00 +27°C° 0 mm 3 m/s 691 mmHg 33%
    02:00 +26°C° 0 mm 3 m/s 691 mmHg 34%
    03:00 +26°C° 0 mm 3 m/s 691 mmHg 35%
    04:00 +25°C° 0 mm 3 m/s 691 mmHg 36%
    05:00 +24°C° 0 mm 3 m/s 691 mmHg 38%
    06:00 +26°C° 0 mm 3 m/s 691 mmHg 35%
    07:00 +27°C° 0 mm 3 m/s 691 mmHg 32%
    08:00 +28°C° 0 mm 3 m/s 692 mmHg 29%
    09:00 +30°C° 0 mm 3 m/s 692 mmHg 26%
    10:00 +33°C° 0 mm 3 m/s 692 mmHg 23%
    11:00 +34°C° 0 mm 3 m/s 692 mmHg 20%
    12:00 +35°C° 0 mm 3 m/s 691 mmHg 19%
    13:00 +36°C° 0 mm 3 m/s 691 mmHg 18%
    14:00 +37°C° 0 mm 3 m/s 691 mmHg 17%
    15:00 +36°C° 0 mm 4 m/s 691 mmHg 18%
    16:00 +36°C° 0 mm 4 m/s 691 mmHg 18%
    17:00 +35°C° 0 mm 4 m/s 691 mmHg 18%
    18:00 +34°C° 0 mm 4 m/s 691 mmHg 21%
    19:00 +33°C° 0 mm 4 m/s 691 mmHg 23%
    20:00 +30°C° 0 mm 3 m/s 691 mmHg 25%
    21:00 +29°C° 0 mm 3 m/s 691 mmHg 28%
    22:00 +28°C° 0 mm 3 m/s 691 mmHg 30%
    23:00 +27°C° 0 mm 3 m/s 691 mmHg 32%
    Mostrar mais